Location: Tucson
(32.2217°N, 110.9265°W)
Time: 07:54:45
(UTC-07:00)

BlueWalker 3 - Visible Passes

Search period start: 09 September 2024 00:00
Search period end: 19 September 2024 00:00
Orbit: 476 x 487 km, 53.2° (Epoch: 09 September)

Date Brightness Start Highest point End Pass type
(mag) Time Alt. Az. Time Alt. Az. Time Alt. Az.
09 Sep 5.0 21:14:22 10° NNW 21:14:33 11° NNW 21:14:33 11° NNW visible
10 Sep 4.3 20:47:00 10° NNW 20:48:09 17° N 20:48:09 17° N visible
11 Sep 3.6 20:19:37 10° NNW 20:21:48 23° NNE 20:21:48 23° NNE visible
12 Sep 3.3 19:52:13 10° NNW 19:55:17 24° NE 19:55:28 23° NE visible
13 Sep 3.4 19:24:47 10° NNW 19:27:43 21° NE 19:29:12 17° ENE visible
13 Sep 4.7 21:02:22 10° WNW 21:03:27 17° WNW 21:03:27 17° WNW visible
14 Sep 3.6 18:57:19 10° N 19:00:06 19° NE 19:02:51 10° E visible
14 Sep 3.5 20:34:42 10° WNW 20:37:15 32° W 20:37:15 32° W visible
15 Sep 2.6 20:07:02 10° NW 20:10:37 45° SW 20:11:08 42° SSW visible
16 Sep 2.4 19:39:20 10° NW 19:42:59 53° SW 19:45:07 22° SSE visible
17 Sep 2.3 19:11:36 10° NW 19:15:17 62° SW 19:18:59 10° SSE visible
18 Sep 2.1 18:43:51 10° NW 18:47:34 73° SW 18:51:17 10° SE visible
